Precipitable_Water
1.30 1.30 1.32 1.21 1.41 1.38 1.35 1.46 1.57 1.50 1.48 1.37 1.29 1.26 1.36 1.35 1.33 1.30 1.15 1.17 1.20 1.24
1.33 1.32 1.35 1.26 1.35 1.45 1.46 1.53 1.53 1.47 1.49 1.50 1.41 1.17 1.29 1.29 1.29 1.30 1.25 1.13 1.10 1.18
1.22 1.37 1.36 1.36 1.30 1.42 1.51 1.49 1.47 1.48 1.50 1.50 1.49 1.37 1.24 1.26 1.31 1.27 1.31 1.27 1.14 1.11
1.24 1.34 1.36 1.29 1.35 1.37 1.54 1.51 1.48 1.49 1.50 1.48 1.48 1.43 1.21 1.21 1.29 1.27 1.25 1.31 1.23 1.22
1.30 1.29 1.30 1.25 1.32 1.36 1.37 1.53 1.53 1.50 1.50 1.49 1.45 1.43 1.27 1.15 1.24 1.22 1.25 1.25 1.27 1.24
1.27 1.26 1.20 1.25 1.30 1.33 1.30 1.38 1.48 1.49 1.47 1.47 1.46 1.43 1.44 1.28 1.18 1.23 1.27 1.29 1.26 1.25
1.22 1.17 1.19 1.26 1.24 1.31 1.39 1.41 1.43 1.47 1.49 1.49 1.48 1.49 1.51 1.46 1.25 1.23 1.25 1.34 1.32 1.36
1.23 1.25 1.28 1.31 1.33 1.30 1.35 1.46 1.52 1.51 1.55 1.58 1.58 1.59 1.60 1.58 1.42 1.29 1.23 1.35 1.35 1.40
1.22 1.29 1.31 1.36 1.36 1.41 1.42 1.45 1.53 1.58 1.61 1.65 1.71 1.75 1.81 1.76 1.59 1.43 1.28 1.26 1.36 1.47
1.19 1.24 1.32 1.41 1.46 1.49 1.52 1.62 1.65 1.73 1.80 1.83 1.89 1.94 1.84 1.75 1.65 1.50 1.33 1.34 1.43 1.50
1.23 1.20 1.38 1.47 1.49 1.59 1.69 1.74 1.83 1.91 2.02 1.93 1.90 1.81 1.74 1.70 1.60 1.46 1.46 1.51 1.50 1.50
1.26 1.22 1.36 1.46 1.61 1.71 1.75 1.84 1.92 2.00 1.90 1.78 1.77 1.74 1.66 1.57 1.48 1.44 1.44 1.47 1.49 1.56
1.36 1.30 1.36 1.56 1.70 1.78 1.86 1.99 2.04 1.84 1.81 1.79 1.67 1.65 1.61 1.51 1.41 1.34 1.39 1.48 1.45 1.53
1.51 1.46 1.57 1.71 1.80 1.89 2.04 1.96 1.78 1.68 1.62 1.59 1.60 1.57 1.49 1.44 1.46 1.43 1.39 1.39 1.42 1.48
Wind_Speed
20 18 16 15 11 12 11 10 8 7 6 6 6 6 8 10 12 14 12 8 9 11
21 20 17 16 15 12 12 10 10 9 8 8 8 8 9 10 11 12 11 11 11 12
22 21 19 17 17 15 13 12 11 11 10 9 10 11 11 11 13 12 12 12 13 14
22 22 20 19 18 17 15 14 13 12 12 12 12 14 14 15 15 15 15 16 16 17
22 23 22 21 20 18 18 16 14 14 14 15 15 16 17 18 18 18 18 18 19 19
23 23 23 22 21 20 19 19 17 17 17 17 18 19 20 21 20 21 21 21 21 21
24 25 24 23 22 22 20 20 20 20 20 21 21 21 22 22 23 23 23 23 23 23
25 25 25 24 22 22 22 21 21 21 22 22 23 23 23 23 23 24 25 25 26 26
26 26 26 25 23 23 22 22 22 23 23 23 24 24 24 26 26 25 26 27 28 27
27 27 27 25 24 23 22 22 22 23 24 24 24 25 25 25 26 27 29 29 28 27
27 28 27 26 25 24 23 23 23 23 23 23 24 24 25 27 29 28 28 28 27 27
28 28 28 26 25 24 23 23 23 22 22 22 23 25 26 27 27 27 27 27 28 27
30 29 28 27 26 24 24 24 20 21 22 23 24 26 27 27 26 26 26 27 27 26
31 29 28 26 25 24 23 21 22 21 23 24 25 26 25 25 26 25 25 25 25 26
Wind_Direction
225 226 227 225 229 221 219 219 223 233 251 273 288 304 319 330 337 343 350 320 300 296
223 223 224 225 225 223 221 222 228 241 253 269 288 295 306 317 330 338 343 333 319 306
221 221 222 224 221 220 220 232 237 243 252 264 279 290 294 302 313 317 321 324 325 317
220 219 221 221 222 223 228 232 244 248 255 265 277 285 289 292 297 301 308 310 311 312
219 219 221 222 223 227 230 237 245 253 260 268 275 284 287 287 289 292 298 301 303 305
219 219 221 223 227 230 236 241 248 255 261 270 276 280 286 286 285 289 293 296 299 301
221 221 222 226 230 232 238 245 252 260 266 271 276 280 285 288 286 286 289 293 294 295
223 223 225 227 230 234 241 249 256 262 268 273 277 280 283 284 287 286 286 290 292 292
224 224 226 229 233 240 246 252 257 264 269 274 278 280 282 283 284 286 285 288 291 290
225 226 227 231 235 240 246 253 260 265 269 274 279 283 282 286 287 286 286 287 288 289
227 227 228 231 235 242 249 254 261 266 269 275 280 284 286 288 291 289 288 286 286 288
227 227 228 232 238 244 250 256 262 266 272 276 280 283 289 293 293 290 287 287 287 285
228 229 230 233 239 245 251 258 264 270 272 277 283 286 289 291 292 290 289 289 285 282
228 228 229 234 238 245 248 257 264 269 276 279 285 288 287 288 289 289 291 290 287 283